星链-4755 (STARLINK-4755 )

导读

STARLINK-4755是美国太空探索技术公司星链互联网卫星星座中的一员,于2022年9月19日发射升空,归属星链低轨卫星互联网组网项目。星链计划旨在构建全球覆盖的卫星互联网,该卫星承担为全球偏远地区、海上等场景提供宽带网络接入服务的任务,属于星链批量部署的低轨通信卫星,服务全球卫星互联网通信网络的整体覆盖与运维。

Basic Information
目录编号:
53851
目录名称:
STARLINK-4755
国际标识:
2022-114AK
轨道中心:
EARTH
卫星名称:
星链-4755
卫星全名:
星链-4755 (STARLINK-4755 )
卫星状态:
在轨 (已飞行1453 天)
发射日期:
2022-09-19 UTC
国别 :
美国 (US)
星等 :
--
This satellite is enrolled in the Space Conjunction Data Service (SCDS) and the current flight risk assessment level is: No High Risk
Orbit Information
数据来源 国际轨道数据 AOE轨道数据
星历时间 2026-09-11T13:17:26+0800
9小时前
查看轨道信息
2026-09-06T00:00:00+0800
5天前
查看轨道信息
半长轴 6917.898km 6917.889km
偏心率 0.0001506 0.0001187
轨道倾角 53.161° 53.161°
近地点辐角 96.206° 73.272°
升交点赤经 180.405° 205.371°
平近点角 263.910° 343.330°
近地点 538.719km 538.93km
远地点 540.803km 540.574km
周期 95.438分钟 95.438分钟
每日圈数 15.088343 15.088374
Detailed Information
固有亮度:
5
最大亮度:
2.5
卫星平台:
Starlink v1.5
覆盖范围:
全球
运营商:
太空探索技术公司
运营商所在国:
美国
制造商(研发单位):
太空探索技术公司
制造商所在国:
美国
使用方式:
暂无
Satellite Introduction
星链(Starlink)计划是由太空探索技术公司(SpaceX)提出的一个巨型低轨卫星互联网星座项目,计划在2019年至2024年间在太空搭建由约1.2万颗卫星组成的“星链”网络,其中1584颗将部署在地球上空550千米处的近地轨道,并从2020年开始工作。该卫星仍在工作。
2D Orbit Map
3D Orbit Map
Orbit Altitude Analysis Chart
Orbit Inclination Analysis Chart
Orbit Comprehensive Analysis Chart
View Comprehensive Chart
Conjunction Data List
Event ID Objects TCA Miss Dist (km) Collision Risk Probability Collision Risk Index (CRI) Action
CDM_260912-182805-385106-699923
OBJECT G (66999)
2026-09-12T
18:28:12+0000
1.481 km
极远距离
6.883355E-6 低风险 0.52
CDM_260911-181004-925605-385129
2026-09-11T
18:10:03+0000
2.034 km
极远距离
2.709094E-6 低风险 0.44
CDM_260912-011705-385106-761423
2026-09-12T
01:17:37+0000
2.273 km
极远距离
2.095931E-6 低风险 0.41
CDM_260912-165205-385106-699923
OBJECT G (66999)
2026-09-12T
16:52:42+0000
2.800 km
极远距离
1.445266E-6 低风险 0.38
CDM_260912-004104-284605-385123
2026-09-12T
00:41:48+0000
2.923 km
极远距离
1.297059E-6 低风险 0.37
Miss Distance Evolution Trend with All Objects
Collision Probability Evolution Trend with All Objects